Regional Weather Roundup
Issued by NWS

Home | Current Version | Previous Version | Graphics & Text | Print | Product List | Glossary On
Versions: 1 2 3 4 5 6 7 8 9 10 11 12 13 14 15 16 17 18 19 20 21 22 23 24 25 26 27 28 29 30 31 32 33 34 35 36 37 38 39 40 41 42 43 44 45 46 47 48 49 50
000
ASUS43 KMKX 172100
RWRWI

WISCONSIN REGIONAL WEATHER ROUNDUP
NATIONAL WEATHER SERVICE MILWAUKEE/SULLIVAN WI
400 PM CDT THU AUG 17 2017

NOTE: "FAIR" INDICATES FEW OR NO CLOUDS BELOW 12,000 FEET WITH NO
SIGNIFICANT WEATHER AND/OR OBSTRUCTIONS TO VISIBILITY.

WIZ001-002-006>008-014>016-023>028-172200-
NORTHWEST WISCONSIN

CITY           SKY/WX    TMP DP  RH WIND       PRES   REMARKS
SUPERIOR ARPT    N/A     65  62  90 NW9G17    29.68R
ASHLAND        CLOUDY    62  61  96 N12       29.63R
HAYWARD        CLOUDY    63  60  90 N8G20     29.65R
SIREN          RAIN      63  61  95 NW12      29.71R
CUMBERLAND     LGT RAIN  61  59  94 NW20      29.68R
RICE LAKE      CLOUDY    65  60  85 NW12G21   29.68R
CHETEK         CLOUDY    65  62  87 NW10G25   29.65R
LADYSMITH      CLOUDY    68  65  90 NW23      29.62R
EAU CLAIRE     CLOUDY    66  61  82 W18G25    29.65R
MENOMONIE      CLOUDY    66  61  84 W18G30    29.67R
NEW RICHMOND   CLOUDY    66  61  83 NW10      29.71R
OSCEOLA        CLOUDY    67  66  96 NW9       29.74R
$$

WIZ003>005-009-010-017-018-172200-
NORTH CENTRAL WISCONSIN

CITY           SKY/WX    TMP DP  RH WIND       PRES   REMARKS
MANITOWISH WTR CLOUDY    67  67 100 SW3       29.57S
ARBOR VITAE    CLOUDY    72  67  83 CALM      29.56S
WOODRUFF       CLOUDY    72  67  83 CALM      29.56S
RHINELANDER    CLOUDY    70  68  93 SW5       29.56S
EAGLE RIVER    DRIZZLE   68  67  99 SW3       29.56F
LAND O LAKES   CLOUDY    71  63  76 W5        29.58S
PHILLIPS       RAIN      67  67  99 W6        29.57R
TOMAHAWK         N/A     71  67  87 NW3       29.55S FOG
MEDFORD        CLOUDY    70  64  82 W17G25    29.57R
MERRILL        NOT AVBL
$$

WIZ029-030-035-036-043>047-172200-
CENTRAL WISCONSIN

CITY           SKY/WX    TMP DP  RH WIND       PRES   REMARKS
WAUSAU         LGT RAIN  70  67  90 W16G22    29.53S
MOSINEE        PTSUNNY   72  66  83 W17G29    29.57R
MARSHFIELD     CLOUDY    73  65  75 W14G24    29.58R
STEVENS POINT  PTSUNNY   72  64  76 W16G24    29.57S
WAUPACA        CLOUDY    76  66  70 SW14G22   29.57F
WAUTOMA        CLOUDY    75  67  76 SW15G21   29.60R
WISC RAPIDS    PTSUNNY   75  68  78 W14G20    29.60S
CAMP DOUGLAS   NOT AVBL
$$

WIZ011>013-019>022-031-037>040-048>050-172200-
NORTHEAST WISCONSIN

CITY           SKY/WX    TMP DP  RH WIND       PRES   REMARKS
ANTIGO         CLOUDY    67  67  99 SW10      29.56S FOG
SHAWANO        CLOUDY    74  67  79 S10G16    29.54F
OCONTO         CLOUDY    74  65  73 SW6       29.55F
STURGEON BAY   PTSUNNY   76  66  71 SW15G21   29.57F
GREEN BAY      CLOUDY    74  67  78 SW15G24   29.57S
MANITOWOC      NOT AVBL
APPLETON       PTSUNNY   73  63  68 SW17G23   29.58F
CLINTONVILLE   CLOUDY    72  64  78 SW13      29.56S
OSHKOSH        PTSUNNY   75  65  70 SW17G26   29.59F
$$

WIZ032>034-041-042-053>061-172200-
SOUTHWEST WISCONSIN

CITY           SKY/WX    TMP DP  RH WIND       PRES   REMARKS
LA CROSSE      CLOUDY    74  63  68 NW20      29.66R
SPARTA         CLOUDY    70  65  83 W13G22    29.65R HAZE
VIROQUA        CLOUDY    70  65  86 W15G24    29.69R
BOSCOBEL       CLOUDY    72  66  81 W12G20    29.70R
PRAIRIE DU CHI CLOUDY    74  62  65 W21G31    29.71R
PLATTEVILLE    CLOUDY    72  68  88 W16G22    29.74R
$$

WIZ056-057-062-063-064-067-068-172200-
SOUTH CENTRAL WISCONSIN

CITY           SKY/WX    TMP DP  RH WIND       PRES   REMARKS
REEDSBURG      CLOUDY    73  65  78 W16G24    29.65R
BARABOO/DELLS  CLOUDY    72  63  75 W12G20    29.65R
LONE ROCK      LGT RAIN  72  66  81 W10G23    29.67R
MINERAL POINT  CLOUDY    72  70  94 W15G22    29.72R
MADISON        PTSUNNY   74  65  73 W8G22     29.66R
MIDDLETON      CLOUDY    73  67  82 W16G26    29.68R
WATERTOWN      CLOUDY    74  67  77 SW15G30   29.65F
MONROE         LGT RAIN  70  66  88 W21G29    29.72R
JANESVILLE     RAIN      79  64  61 W21G30    29.68S HX  81
$$

WIZ051-052-058>065-066-070>072-172200-
SOUTHEAST WISCONSIN

CITY           SKY/WX    TMP DP  RH WIND       PRES   REMARKS
MILWAUKEE      PTSUNNY   80  64  58 SW22G30   29.66S HX  82
WAUKESHA       LGT RAIN  72  64  78 W12G26    29.68S
MILWAUKEE/TIMM LGT RAIN  75  61  60 SW24G32   29.66S
RACINE         PTSUNNY   79  65  62 SW16G23   29.69S HX  81
KENOSHA        PTSUNNY   78  64  61 SW18G26   29.69S HX  80
FOND DU LAC    PTSUNNY   74  67  78 SW10G21   29.62S
SHEBOYGAN      CLOUDY    75  70  84 SW9       29.62R
WEST BEND      RAIN      70  66  88 SW12G23   29.65R
JUNEAU         CLOUDY    73  66  78 SW17G24   29.66S
$$

LSZ147-162-172200-
LAKE SUPERIOR

STATION/POSITION TIME  TEMP    WIND        PRES    WAVE
                       AIR SEA DIR/SP/G            HT/PER
                 (UTC) (F)     (DEG/KT/KT) (MB)    (FT/S)
W MID LAKE BUOY  1950   59 60   20/ 19/ 23 1000.9R   4/ 6
DEVILS ISLAND    2000   60      20/ 20/ 22 1002.6R
SAXON HARBOR     2030   62     330/ 13/ 14 1002.0R
$$

LMZ867-665-643>646-172200-
LAKE MICHIGAN

STATION/POSITION TIME  TEMP    WIND        PRES    WAVE
                       AIR SEA DIR/SP/G            HT/PER
                 (UTC) (F)     (DEG/KT/KT) (MB)    (FT/S)
S GREEN BAY BUOY 2030   74 72  200/ 14/ 17 1001.0S
N MID LAKE BUOY  1950   69 68  180/ 19/ 23 1002.3F   4/ 5
NORTHPORT PIER   2040   71     160/  8/ 15 1001.4F
KEWAUNEE LAKESHO 2030   79     210/ 14/ 19 1001.1F
SHEBOYGAN LAKESH 2000   78     220/ 18/ 23 1001.9F
PORT WASHINGTON  2040   81     250/ 10/ 21 1004.1S
ATWATER BUOY     1939   77 71  220/ 17/ 21 1004.5F
MILWAUKEE LAKESH 2030   78     230/ 16/ 22   N/A
S MID LAKE BUOY  1950   73 72  210/ 19/ 23 1004.9F   3/ 5
KENOSHA   LAKESH 2000   79     250/ 18/ 27 1005.1
$$

TC  - TEMPERATURE IN CELSIUS
VSB - VISIBILITY IN STATUTE MILES
WCI - WIND CHILL INDEX
HX  - HEAT INDEX





USA.gov is the U.S. government's official web portal to all federal, state and local government web resources and services.